• In Moldova, Republic
  • List of Countries
  • For 7 days
  • Water Temperature
  • Satellite Maps
  • Weather Map
  • Weather Widgets
  • user-avatar
    Login

    Hourly Weather Korçe

    Today, 25 January, Wednesday

    Time Temperature Precipitation Wind Pressure Humidity
    00:00 -3°C° 0 mm 2 mps 662 mmHg 93%
    01:00 -3°C° 0 mm 2 mps 662 mmHg 93%
    02:00 -3°C° 0.1 mm 2 mps 662 mmHg 93%
    03:00 -4°C° 0.1 mm 2 mps 662 mmHg 93%
    04:00 -4°C° 0.1 mm 2 mps 662 mmHg 92%
    05:00 -4°C° 0.1 mm 2 mps 663 mmHg 92%
    06:00 -4°C° 0.1 mm 2 mps 663 mmHg 92%
    07:00 -4°C° 0.1 mm 2 mps 663 mmHg 92%
    08:00 -3°C° 0 mm 2 mps 664 mmHg 90%
    09:00 -2°C° 0 mm 2 mps 664 mmHg 88%
    10:00 -1°C° 0 mm 2 mps 665 mmHg 86%
    11:00 +1°C° 0.1 mm 2 mps 665 mmHg 84%
    12:00 +1°C° 0.1 mm 2 mps 665 mmHg 83%
    13:00 +3°C° 0.1 mm 1 mps 666 mmHg 82%
    14:00 +3°C° 0.1 mm 1 mps 666 mmHg 84%
    15:00 +2°C° 0.1 mm 1 mps 666 mmHg 86%
    16:00 +2°C° 0.1 mm 1 mps 666 mmHg 88%
    17:00 0°C° 0 mm 1 mps 666 mmHg 89%
    18:00 -1°C° 0 mm 1 mps 666 mmHg 90%
    19:00 -4°C° 0 mm 2 mps 666 mmHg 92%
    20:00 -4°C° 0.1 mm 2 mps 666 mmHg 91%
    21:00 -4°C° 0.1 mm 2 mps 666 mmHg 91%
    22:00 -4°C° 0.1 mm 2 mps 666 mmHg 90%
    23:00 -4°C° 0.1 mm 2 mps 667 mmHg 90%

    Tomorrow, 26 January, Thursday

    Time Temperature Precipitation Wind Pressure Humidity
    00:00 -5°C° 0.1 mm 2 mps 667 mmHg 90%
    01:00 -5°C° 0.1 mm 2 mps 667 mmHg 90%
    02:00 -5°C° 0.1 mm 2 mps 667 mmHg 90%
    03:00 -5°C° 0.1 mm 2 mps 667 mmHg 90%
    04:00 -5°C° 0.1 mm 2 mps 667 mmHg 90%
    05:00 -5°C° 0.1 mm 2 mps 667 mmHg 90%
    06:00 -5°C° 0.1 mm 2 mps 667 mmHg 90%
    07:00 -5°C° 0.1 mm 2 mps 667 mmHg 90%
    08:00 -4°C° 0.1 mm 2 mps 668 mmHg 88%
    09:00 -3°C° 0.1 mm 2 mps 668 mmHg 85%
    10:00 +1°C° 0.1 mm 1 mps 669 mmHg 83%
    11:00 +1°C° 0.1 mm 1 mps 669 mmHg 82%
    12:00 +2°C° 0.1 mm 1 mps 669 mmHg 82%
    13:00 +3°C° 0.1 mm 1 mps 669 mmHg 82%
    14:00 +2°C° 0.2 mm 1 mps 669 mmHg 84%
    15:00 +2°C° 0.2 mm 1 mps 669 mmHg 87%
    16:00 +1°C° 0.2 mm 1 mps 669 mmHg 90%
    17:00 0°C° 0.2 mm 1 mps 669 mmHg 91%
    18:00 0°C° 0.2 mm 1 mps 670 mmHg 92%
    19:00 -1°C° 0.2 mm 1 mps 670 mmHg 93%
    20:00 -2°C° 0.1 mm 1 mps 670 mmHg 93%
    21:00 -2°C° 0.1 mm 1 mps 670 mmHg 93%
    22:00 -3°C° 0.1 mm 1 mps 670 mmHg 93%
    23:00 -5°C° 0 mm 2 mps 670 mmHg 93%

    Day after tomorrow, 27 January, Friday

    Time Temperature Precipitation Wind Pressure Humidity
    00:00 -5°C° 0 mm 2 mps 670 mmHg 93%
    01:00 -5°C° 0 mm 2 mps 670 mmHg 92%
    02:00 -6°C° 0 mm 2 mps 670 mmHg 92%
    03:00 -6°C° 0 mm 2 mps 670 mmHg 92%
    04:00 -6°C° 0 mm 2 mps 670 mmHg 92%
    05:00 -6°C° 0 mm 2 mps 670 mmHg 91%
    06:00 -6°C° 0 mm 2 mps 670 mmHg 91%
    07:00 -7°C° 0 mm 2 mps 671 mmHg 91%
    08:00 -5°C° 0 mm 2 mps 671 mmHg 87%
    09:00 -1°C° 0 mm 1 mps 672 mmHg 83%
    10:00 0°C° 0 mm 1 mps 672 mmHg 78%
    11:00 +1°C° 0 mm 1 mps 672 mmHg 77%
    12:00 +2°C° 0 mm 1 mps 672 mmHg 75%
    13:00 +3°C° 0 mm 1 mps 672 mmHg 73%
    14:00 +1°C° 0 mm 0 mps 672 mmHg 77%
    15:00 0°C° 0 mm 0 mps 671 mmHg 81%
    16:00 0°C° 0 mm 0 mps 671 mmHg 84%
    17:00 -2°C° 0 mm 0 mps 671 mmHg 87%
    18:00 -4°C° 0 mm 0 mps 670 mmHg 90%
    19:00 -6°C° 0 mm 0 mps 670 mmHg 93%
    20:00 -6°C° 0 mm 0 mps 669 mmHg 93%
    21:00 -7°C° 0 mm 0 mps 669 mmHg 94%
    22:00 -7°C° 0 mm 0 mps 669 mmHg 94%
    23:00 -7°C° 0 mm 0 mps 669 mmHg 94%

    28 January, Saturday

    Time Temperature Precipitation Wind Pressure Humidity
    00:00 -7°C° 0 mm 0 mps 669 mmHg 94%
    01:00 -7°C° 0 mm 0 mps 669 mmHg 94%
    02:00 -7°C° 0 mm 0 mps 668 mmHg 94%
    03:00 -7°C° 0 mm 0 mps 668 mmHg 93%
    04:00 -7°C° 0 mm 0 mps 668 mmHg 93%
    05:00 -7°C° 0 mm 0 mps 668 mmHg 92%
    06:00 -7°C° 0 mm 0 mps 668 mmHg 91%
    07:00 -7°C° 0 mm 0 mps 668 mmHg 90%
    08:00 -4°C° 0 mm 0 mps 669 mmHg 82%
    09:00 -1°C° 0 mm 0 mps 670 mmHg 75%
    10:00 +2°C° 0 mm 0 mps 671 mmHg 68%
    11:00 +3°C° 0 mm 0 mps 671 mmHg 67%
    12:00 +3°C° 0 mm 0 mps 670 mmHg 66%
    13:00 +4°C° 0 mm 0 mps 670 mmHg 65%
    14:00 +3°C° 0 mm 0 mps 670 mmHg 70%
    15:00 +2°C° 0 mm 0 mps 669 mmHg 75%
    16:00 0°C° 0 mm 0 mps 669 mmHg 80%
    17:00 -1°C° 0 mm 0 mps 668 mmHg 83%
    18:00 -3°C° 0 mm 0 mps 668 mmHg 86%
    19:00 -5°C° 0 mm 0 mps 667 mmHg 90%
    20:00 -5°C° 0 mm 0 mps 667 mmHg 90%
    21:00 -4°C° 0 mm 1 mps 668 mmHg 90%
    22:00 -4°C° 0 mm 1 mps 668 mmHg 90%
    23:00 -4°C° 0 mm 1 mps 668 mmHg 90%

    29 January, Sunday

    Time Temperature Precipitation Wind Pressure Humidity
    00:00 -6°C° 0 mm 0 mps 667 mmHg 90%
    01:00 -6°C° 0 mm 0 mps 667 mmHg 91%
    02:00 -6°C° 0 mm 0 mps 667 mmHg 91%
    03:00 -6°C° 0 mm 0 mps 667 mmHg 91%
    04:00 -6°C° 0 mm 0 mps 667 mmHg 91%
    05:00 -5°C° 0 mm 0 mps 667 mmHg 90%
    06:00 -4°C° 0 mm 1 mps 668 mmHg 89%
    07:00 -4°C° 0 mm 1 mps 668 mmHg 88%
    08:00 -1°C° 0 mm 1 mps 669 mmHg 81%
    09:00 0°C° 0 mm 0 mps 670 mmHg 75%
    10:00 +3°C° 0 mm 0 mps 671 mmHg 68%
    11:00 +3°C° 0 mm 0 mps 671 mmHg 67%
    12:00 +5°C° 0 mm 1 mps 670 mmHg 67%
    13:00 +5°C° 0 mm 1 mps 670 mmHg 66%
    14:00 +4°C° 0 mm 1 mps 670 mmHg 71%
    15:00 +3°C° 0 mm 1 mps 670 mmHg 76%
    16:00 +2°C° 0 mm 1 mps 669 mmHg 81%
    17:00 +1°C° 0 mm 1 mps 669 mmHg 84%
    18:00 -1°C° 0 mm 1 mps 669 mmHg 87%
    19:00 -2°C° 0 mm 1 mps 668 mmHg 90%
    20:00 -2°C° 0 mm 1 mps 668 mmHg 90%
    21:00 -2°C° 0 mm 1 mps 669 mmHg 91%
    22:00 -2°C° 0 mm 1 mps 669 mmHg 91%
    23:00 -3°C° 0 mm 1 mps 668 mmHg 91%

    30 January, Monday

    Time Temperature Precipitation Wind Pressure Humidity
    00:00 -3°C° 0 mm 1 mps 668 mmHg 91%
    01:00 -4°C° 0 mm 1 mps 668 mmHg 92%
    02:00 -4°C° 0 mm 1 mps 668 mmHg 92%
    03:00 -4°C° 0 mm 1 mps 667 mmHg 92%
    04:00 -4°C° 0 mm 1 mps 667 mmHg 92%
    05:00 -4°C° 0 mm 1 mps 667 mmHg 92%
    06:00 -4°C° 0 mm 1 mps 667 mmHg 92%
    07:00 -6°C° 0 mm 1 mps 667 mmHg 92%
    08:00 -3°C° 0 mm 0 mps 668 mmHg 86%
    09:00 0°C° 0 mm 0 mps 669 mmHg 79%
    10:00 +3°C° 0 mm 0 mps 670 mmHg 72%
    11:00 +3°C° 0 mm 0 mps 670 mmHg 70%
    12:00 +5°C° 0 mm 1 mps 670 mmHg 68%
    13:00 +5°C° 0 mm 1 mps 670 mmHg 65%
    14:00 +4°C° 0 mm 1 mps 669 mmHg 70%
    15:00 +4°C° 0 mm 1 mps 669 mmHg 75%
    16:00 +3°C° 0 mm 1 mps 669 mmHg 80%
    17:00 +1°C° 0 mm 1 mps 668 mmHg 83%
    18:00 -1°C° 0 mm 1 mps 668 mmHg 87%
    19:00 -3°C° 0 mm 0 mps 667 mmHg 91%
    20:00 -4°C° 0 mm 0 mps 667 mmHg 90%
    21:00 -4°C° 0 mm 0 mps 667 mmHg 90%
    22:00 -4°C° 0 mm 0 mps 667 mmHg 90%
    23:00 -4°C° 0 mm 0 mps 667 mmHg 89%
    Show more